site,time,unit,value
Empingham,10/11/2023 00:00:00,MW,5.4758987
Empingham,10/11/2023 00:05:00,MW,5.4504845
Empingham,10/11/2023 00:10:00,MW,5.443176
Empingham,10/11/2023 00:15:00,MW,5.439106000000001
Empingham,10/11/2023 00:20:00,MW,5.4396186
Empingham,10/11/2023 00:25:00,MW,4.9342326
Empingham,10/11/2023 00:30:00,MW,4.9215526
Empingham,10/11/2023 00:35:00,MW,4.924523499999999
Empingham,10/11/2023 00:40:00,MW,4.9627778
Empingham,10/11/2023 00:45:00,MW,5.0165632
Empingham,10/11/2023 00:50:00,MW,5.0063096
Empingham,10/11/2023 00:55:00,MW,4.976129800000001
Empingham,10/11/2023 01:00:00,MW,5.3700963
Empingham,10/11/2023 01:05:00,MW,5.4676086999999995
Empingham,10/11/2023 01:10:00,MW,5.4542915999999995
Empingham,10/11/2023 01:15:00,MW,5.4626169
Empingham,10/11/2023 01:20:00,MW,5.4814262
Empingham,10/11/2023 01:25:00,MW,5.439457900000001
Empingham,10/11/2023 01:30:00,MW,5.4509763
Empingham,10/11/2023 01:35:00,MW,5.465496999999999
Empingham,10/11/2023 01:40:00,MW,5.4353879
Empingham,10/11/2023 01:45:00,MW,5.4277413
Empingham,10/11/2023 01:50:00,MW,5.462213
Empingham,10/11/2023 01:55:00,MW,5.4270937
Empingham,10/11/2023 02:00:00,MW,5.4310042
Empingham,10/11/2023 02:05:00,MW,5.4364302
Empingham,10/11/2023 02:10:00,MW,5.4097648
Empingham,10/11/2023 02:15:00,MW,5.429066199999999
Empingham,10/11/2023 02:20:00,MW,5.4051654
Empingham,10/11/2023 02:25:00,MW,5.4069296
Empingham,10/11/2023 02:30:00,MW,5.4266556999999995
Empingham,10/11/2023 02:35:00,MW,5.4235356
Empingham,10/11/2023 02:40:00,MW,5.4448042
Empingham,10/11/2023 02:45:00,MW,5.4508416
Empingham,10/11/2023 02:50:00,MW,5.464722999999999
Empingham,10/11/2023 02:55:00,MW,5.4805991
Empingham,10/11/2023 03:00:00,MW,5.2517572
Empingham,10/11/2023 03:05:00,MW,5.1396497
Empingham,10/11/2023 03:10:00,MW,5.1109843
Empingham,10/11/2023 03:15:00,MW,5.090578799999999
Empingham,10/11/2023 03:20:00,MW,5.080334199999999
Empingham,10/11/2023 03:25:00,MW,5.0781814999999995
Empingham,10/11/2023 03:30:00,MW,5.088036499999999
Empingham,10/11/2023 03:35:00,MW,4.936544
Empingham,10/11/2023 03:40:00,MW,4.9477256
Empingham,10/11/2023 03:45:00,MW,4.9652081
Empingham,10/11/2023 03:50:00,MW,4.9412541
Empingham,10/11/2023 03:55:00,MW,4.9595786
Empingham,10/11/2023 04:00:00,MW,4.9515367
Empingham,10/11/2023 04:05:00,MW,5.0354185000000005
Empingham,10/11/2023 04:10:00,MW,5.0292715999999995
Empingham,10/11/2023 04:15:00,MW,4.9869354999999995
Empingham,10/11/2023 04:20:00,MW,4.990293899999999
Empingham,10/11/2023 04:25:00,MW,4.9757309
Empingham,10/11/2023 04:30:00,MW,4.9827217
Empingham,10/11/2023 04:35:00,MW,5.0095975
Empingham,10/11/2023 04:40:00,MW,5.0484726
Empingham,10/11/2023 04:45:00,MW,5.0529008
Empingham,10/11/2023 04:50:00,MW,5.037136800000001
Empingham,10/11/2023 04:55:00,MW,5.041919200000001
Empingham,10/11/2023 05:00:00,MW,4.9926014
Empingham,10/11/2023 05:05:00,MW,4.821888899999999
Empingham,10/11/2023 05:10:00,MW,4.833817
Empingham,10/11/2023 05:15:00,MW,4.91169
Empingham,10/11/2023 05:20:00,MW,5.1122992
Empingham,10/11/2023 05:25:00,MW,5.1899265
Empingham,10/11/2023 05:30:00,MW,5.3578700999999995
Empingham,10/11/2023 05:35:00,MW,5.49252
Empingham,10/11/2023 05:40:00,MW,4.9760358
Empingham,10/11/2023 05:45:00,MW,5.0028162
Empingham,10/11/2023 05:50:00,MW,4.9295597
Empingham,10/11/2023 05:55:00,MW,5.0121068
Empingham,10/11/2023 06:00:00,MW,5.072319200000001
Empingham,10/11/2023 06:05:00,MW,5.0082085
Empingham,10/11/2023 06:10:00,MW,5.1262813000000005
Empingham,10/11/2023 06:15:00,MW,5.1190574
Empingham,10/11/2023 06:20:00,MW,5.248229
Empingham,10/11/2023 06:25:00,MW,5.1702871
Empingham,10/11/2023 06:30:00,MW,5.3401068
Empingham,10/11/2023 06:35:00,MW,5.3334098
Empingham,10/11/2023 06:40:00,MW,5.4275991999999995
Empingham,10/11/2023 06:45:00,MW,5.4533255
Empingham,10/11/2023 06:50:00,MW,5.6773267
Empingham,10/11/2023 06:55:00,MW,5.670604
Empingham,10/11/2023 07:00:00,MW,5.884639099999999
Empingham,10/11/2023 07:05:00,MW,5.7308682
Empingham,10/11/2023 07:10:00,MW,5.7798666999999995
Empingham,10/11/2023 07:15:00,MW,5.9292774999999995
Empingham,10/11/2023 07:20:00,MW,5.9080522
Empingham,10/11/2023 07:25:00,MW,6.1153045
Empingham,10/11/2023 07:30:00,MW,6.0798103999999995
Empingham,10/11/2023 07:35:00,MW,6.3278704
Empingham,10/11/2023 07:40:00,MW,6.4817012
Empingham,10/11/2023 07:45:00,MW,6.4896377
Empingham,10/11/2023 07:50:00,MW,6.5676375
Empingham,10/11/2023 07:55:00,MW,6.4758163
Empingham,10/11/2023 08:00:00,MW,6.5936182
Empingham,10/11/2023 08:05:00,MW,6.4446311000000005
Empingham,10/11/2023 08:10:00,MW,6.5626062
Empingham,10/11/2023 08:15:00,MW,6.4923386999999995
Empingham,10/11/2023 08:20:00,MW,6.6511499
Empingham,10/11/2023 08:25:00,MW,6.5528784
Empingham,10/11/2023 08:30:00,MW,6.5888235
Empingham,10/11/2023 08:35:00,MW,6.7653263
Empingham,10/11/2023 08:40:00,MW,7.1518087
Empingham,10/11/2023 08:45:00,MW,7.0033702
Empingham,10/11/2023 08:50:00,MW,7.0747939
Empingham,10/11/2023 08:55:00,MW,7.131530099999999
Empingham,10/11/2023 09:00:00,MW,7.0254146
Empingham,10/11/2023 09:05:00,MW,7.0539942
Empingham,10/11/2023 09:10:00,MW,7.0288968
Empingham,10/11/2023 09:15:00,MW,7.0677318
Empingham,10/11/2023 09:20:00,MW,7.1349225
Empingham,10/11/2023 09:25:00,MW,7.2012743
Empingham,10/11/2023 09:30:00,MW,7.127335
Empingham,10/11/2023 09:35:00,MW,7.094011
Empingham,10/11/2023 09:40:00,MW,7.2095848
Empingham,10/11/2023 09:45:00,MW,7.228456700000001
Empingham,10/11/2023 09:50:00,MW,7.2255717
Empingham,10/11/2023 09:55:00,MW,7.145542
Empingham,10/11/2023 10:00:00,MW,7.0911021000000005
Empingham,10/11/2023 10:05:00,MW,7.1255158
Empingham,10/11/2023 10:10:00,MW,7.1033097
Empingham,10/11/2023 10:15:00,MW,7.0355015
Empingham,10/11/2023 10:20:00,MW,6.9939507
Empingham,10/11/2023 10:25:00,MW,7.035503
Empingham,10/11/2023 10:30:00,MW,6.5174284
Empingham,10/11/2023 10:35:00,MW,6.596208
Empingham,10/11/2023 10:40:00,MW,6.8891592
Empingham,10/11/2023 10:45:00,MW,6.876531399999999
Empingham,10/11/2023 10:50:00,MW,6.894410499999999
Empingham,10/11/2023 10:55:00,MW,6.9939546
Empingham,10/11/2023 11:00:00,MW,7.048064699999999
Empingham,10/11/2023 11:05:00,MW,6.827092
Empingham,10/11/2023 11:10:00,MW,6.6089749
Empingham,10/11/2023 11:15:00,MW,6.267620600000001
Empingham,10/11/2023 11:20:00,MW,5.911978
Empingham,10/11/2023 11:25:00,MW,5.8852925
Empingham,10/11/2023 11:30:00,MW,5.795014800000001
Empingham,10/11/2023 11:35:00,MW,5.641556
Empingham,10/11/2023 11:40:00,MW,5.6840841
Empingham,10/11/2023 11:45:00,MW,5.594379099999999
Empingham,10/11/2023 11:50:00,MW,5.5209394
Empingham,10/11/2023 11:55:00,MW,5.6901729
Empingham,10/11/2023 12:00:00,MW,5.5977154
Empingham,10/11/2023 12:05:00,MW,5.7615418
Empingham,10/11/2023 12:10:00,MW,5.7973254
Empingham,10/11/2023 12:15:00,MW,5.7012493
Empingham,10/11/2023 12:20:00,MW,5.822202900000001
Empingham,10/11/2023 12:25:00,MW,5.824147
Empingham,10/11/2023 12:30:00,MW,5.7970214
Empingham,10/11/2023 12:35:00,MW,6.0478468
Empingham,10/11/2023 12:40:00,MW,5.773389399999999
Empingham,10/11/2023 12:45:00,MW,5.8659887
Empingham,10/11/2023 12:50:00,MW,5.8743988
Empingham,10/11/2023 12:55:00,MW,5.8235759
Empingham,10/11/2023 13:00:00,MW,5.8356519
Empingham,10/11/2023 13:05:00,MW,5.8322325
Empingham,10/11/2023 13:10:00,MW,5.769855
Empingham,10/11/2023 13:15:00,MW,5.993974
Empingham,10/11/2023 13:20:00,MW,6.0287054
Empingham,10/11/2023 13:25:00,MW,5.9693112
Empingham,10/11/2023 13:30:00,MW,6.0356366999999995
Empingham,10/11/2023 13:35:00,MW,6.2503896
Empingham,10/11/2023 13:40:00,MW,6.167414
Empingham,10/11/2023 13:45:00,MW,6.0233986
Empingham,10/11/2023 13:50:00,MW,6.2726915000000005
Empingham,10/11/2023 13:55:00,MW,6.1126618
Empingham,10/11/2023 14:00:00,MW,5.9906709
Empingham,10/11/2023 14:05:00,MW,6.2213223
Empingham,10/11/2023 14:10:00,MW,6.0982927
Empingham,10/11/2023 14:15:00,MW,6.0058679999999995
Empingham,10/11/2023 14:20:00,MW,6.1581034
Empingham,10/11/2023 14:25:00,MW,6.059173599999999
Empingham,10/11/2023 14:30:00,MW,6.094972
Empingham,10/11/2023 14:35:00,MW,5.983046
Empingham,10/11/2023 14:40:00,MW,6.1361759
Empingham,10/11/2023 14:45:00,MW,6.1161619
Empingham,10/11/2023 14:50:00,MW,6.004246
Empingham,10/11/2023 14:55:00,MW,6.0981673
Empingham,10/11/2023 15:00:00,MW,6.1012199
Empingham,10/11/2023 15:05:00,MW,5.9891705
Empingham,10/11/2023 15:10:00,MW,6.0492242
Empingham,10/11/2023 15:15:00,MW,5.6910527
Empingham,10/11/2023 15:20:00,MW,5.6139107
Empingham,10/11/2023 15:25:00,MW,5.4311097
Empingham,10/11/2023 15:30:00,MW,5.5687404
Empingham,10/11/2023 15:35:00,MW,5.4172775
Empingham,10/11/2023 15:40:00,MW,5.4521933
Empingham,10/11/2023 15:45:00,MW,5.3685203999999995
Empingham,10/11/2023 15:50:00,MW,5.1171486
Empingham,10/11/2023 15:55:00,MW,5.2180617
Empingham,10/11/2023 16:00:00,MW,5.070318
Empingham,10/11/2023 16:05:00,MW,5.0969651
Empingham,10/11/2023 16:10:00,MW,5.2014358000000005
Empingham,10/11/2023 16:15:00,MW,5.0682936000000005
Empingham,10/11/2023 16:20:00,MW,5.1080711999999995
Empingham,10/11/2023 16:25:00,MW,4.9868308
Empingham,10/11/2023 16:30:00,MW,4.9760478
Empingham,10/11/2023 16:35:00,MW,5.119653
Empingham,10/11/2023 16:40:00,MW,5.005452399999999
Empingham,10/11/2023 16:45:00,MW,4.9717555
Empingham,10/11/2023 16:50:00,MW,5.0378831
Empingham,10/11/2023 16:55:00,MW,5.064996600000001
Empingham,10/11/2023 17:00:00,MW,5.0596146
Empingham,10/11/2023 17:05:00,MW,5.0236336999999995
Empingham,10/11/2023 17:10:00,MW,5.030804
Empingham,10/11/2023 17:15:00,MW,4.977541
Empingham,10/11/2023 17:20:00,MW,5.009131
Empingham,10/11/2023 17:25:00,MW,4.9372353
Empingham,10/11/2023 17:30:00,MW,5.1005759
Empingham,10/11/2023 17:35:00,MW,4.9699492
Empingham,10/11/2023 17:40:00,MW,5.0710798
Empingham,10/11/2023 17:45:00,MW,5.074805899999999
Empingham,10/11/2023 17:50:00,MW,5.0777063
Empingham,10/11/2023 17:55:00,MW,5.1504161
Empingham,10/11/2023 18:00:00,MW,5.0589476
Empingham,10/11/2023 18:05:00,MW,5.0820632
Empingham,10/11/2023 18:10:00,MW,5.141415
Empingham,10/11/2023 18:15:00,MW,5.1058104
Empingham,10/11/2023 18:20:00,MW,5.0788194
Empingham,10/11/2023 18:25:00,MW,5.2309997
Empingham,10/11/2023 18:30:00,MW,5.1381092
Empingham,10/11/2023 18:35:00,MW,5.209465099999999
Empingham,10/11/2023 18:40:00,MW,5.1152649
Empingham,10/11/2023 18:45:00,MW,5.0411098
Empingham,10/11/2023 18:50:00,MW,4.9848748
Empingham,10/11/2023 18:55:00,MW,4.9230599999999995
Empingham,10/11/2023 19:00:00,MW,4.8961524999999995
Empingham,10/11/2023 19:05:00,MW,5.2928005
Empingham,10/11/2023 19:10:00,MW,5.322231
Empingham,10/11/2023 19:15:00,MW,5.2130351
Empingham,10/11/2023 19:20:00,MW,5.2483501
Empingham,10/11/2023 19:25:00,MW,5.2676552
Empingham,10/11/2023 19:30:00,MW,5.460380600000001
Empingham,10/11/2023 19:35:00,MW,5.4212067
Empingham,10/11/2023 19:40:00,MW,5.425266
Empingham,10/11/2023 19:45:00,MW,5.459444400000001
Empingham,10/11/2023 19:50:00,MW,5.361074
Empingham,10/11/2023 19:55:00,MW,5.3692416000000005
Empingham,10/11/2023 20:00:00,MW,5.3883825000000005
Empingham,10/11/2023 20:05:00,MW,5.3881325
Empingham,10/11/2023 20:10:00,MW,5.5823817
Empingham,10/11/2023 20:15:00,MW,5.7092198
Empingham,10/11/2023 20:20:00,MW,5.7059891
Empingham,10/11/2023 20:25:00,MW,5.7221395
Empingham,10/11/2023 20:30:00,MW,5.6161986
Empingham,10/11/2023 20:35:00,MW,5.596769800000001
Empingham,10/11/2023 20:40:00,MW,5.6334648000000005
Empingham,10/11/2023 20:45:00,MW,5.7474789
Empingham,10/11/2023 20:50:00,MW,5.8945077
Empingham,10/11/2023 20:55:00,MW,5.6225276
Empingham,10/11/2023 21:00:00,MW,5.4243903
Empingham,10/11/2023 21:05:00,MW,5.5539553
Empingham,10/11/2023 21:10:00,MW,5.433589700000001
Empingham,10/11/2023 21:15:00,MW,5.5307827
Empingham,10/11/2023 21:20:00,MW,5.8254411
Empingham,10/11/2023 21:25:00,MW,5.6832086
Empingham,10/11/2023 21:30:00,MW,5.7248184
Empingham,10/11/2023 21:35:00,MW,5.6882912
Empingham,10/11/2023 21:40:00,MW,5.6214645999999995
Empingham,10/11/2023 21:45:00,MW,5.6823387
Empingham,10/11/2023 21:50:00,MW,5.5824108
Empingham,10/11/2023 21:55:00,MW,5.623109100000001
Empingham,10/11/2023 22:00:00,MW,5.668943199999999
Empingham,10/11/2023 22:05:00,MW,5.520684
Empingham,10/11/2023 22:10:00,MW,5.494937
Empingham,10/11/2023 22:15:00,MW,5.6694744
Empingham,10/11/2023 22:20:00,MW,5.5335478
Empingham,10/11/2023 22:25:00,MW,5.5840387
Empingham,10/11/2023 22:30:00,MW,5.5828814
Empingham,10/11/2023 22:35:00,MW,5.5530869
Empingham,10/11/2023 22:40:00,MW,5.5693724
Empingham,10/11/2023 22:45:00,MW,5.4706139
Empingham,10/11/2023 22:50:00,MW,5.395308
Empingham,10/11/2023 22:55:00,MW,5.36566
Empingham,10/11/2023 23:00:00,MW,5.4374915999999995
Empingham,10/11/2023 23:05:00,MW,5.2798617
Empingham,10/11/2023 23:10:00,MW,5.228148
Empingham,10/11/2023 23:15:00,MW,5.1340862000000005
Empingham,10/11/2023 23:20:00,MW,5.1388365
Empingham,10/11/2023 23:25:00,MW,5.1196942
Empingham,10/11/2023 23:30:00,MW,5.068819700000001
Empingham,10/11/2023 23:35:00,MW,5.0632567
Empingham,10/11/2023 23:40:00,MW,5.0339389
Empingham,10/11/2023 23:45:00,MW,5.0231282
Empingham,10/11/2023 23:50:00,MW,4.2440283
Empingham,10/11/2023 23:55:00,MW,3.8110784
